Location: Champseau
(45.8333°N, 1.7667°E)
Time: 18:57:02
(UTC+00:00)

X-37B - Pass Details

Date: 04 October 2021
Orbit: 385 x 389 km, 45.0° (Epoch: 17 October)

Event Time Altitude Azimuth Distance (km) Brightness Sun altitude
Exits shadow 04:34:24 18° 204° (SSW) 1,032 2.4 -14.9°
Drops below altitude 10° 04:36:24 10° 165° (SSE) 1,407 3.5 -14.5°
Sets 04:38:52 0° 146° (SE) 2,258 4.8 -14.1°
